SCP
3 4 4 5 4 3 2 1 1 1 1 1 1 1 1 1 1 1 1 1 1 1 1 1 1 1 1 1 1 1 1 1 1 1 1 1 1 0 0 0 0 0 1
4 4 4 5 5 3 2 1 1 1 1 1 1 1 1 1 1 1 1 1 1 1 1 1 1 1 1 1 1 1 1 1 1 1 1 1 0 0 0 0 0 0 0
5 5 5 5 4 3 2 1 1 1 1 1 1 1 1 1 1 1 1 1 1 1 1 1 1 1 1 1 1 1 1 1 1 1 1 0 0 0 1 1 0 0 1
5 5 5 5 4 3 2 2 2 2 1 1 1 1 1 1 1 1 1 1 0 0 1 1 1 1 1 1 1 1 1 1 1 1 0 0 0 0 1 1 0 0 0
6 6 6 5 4 3 2 2 2 2 2 1 1 1 1 1 1 1 1 1 1 0 1 1 1 1 1 1 1 1 1 1 1 0 0 0 0 0 1 0 0 0 0
6 6 6 5 4 3 2 2 2 2 2 2 1 1 1 1 1 1 1 1 1 1 1 1 1 1 1 1 1 1 1 1 1 1 1 0 0 0 0 0 0 0 0
5 5 4 4 3 3 2 2 2 2 2 2 2 1 1 1 1 1 1 1 1 1 1 1 1 1 1 1 1 1 1 1 1 1 1 1 1 1 0 0 0 0 0
5 4 3 3 3 3 3 2 2 2 2 2 2 1 1 1 1 1 1 1 1 1 1 1 1 1 1 1 1 1 1 1 1 1 1 1 1 1 1 0 0 1 0
4 3 3 3 3 3 3 3 4 4 3 2 2 2 1 1 1 1 1 1 1 1 1 1 1 1 1 2 1 1 1 1 1 1 1 1 1 1 1 1 1 1 1
3 3 3 3 3 4 3 4 4 4 3 3 3 2 2 2 2 1 1 1 1 1 1 1 1 1 1 2 2 1 1 1 1 1 1 1 1 1 1 1 1 1 1
3 3 3 4 4 3 4 3 3 3 3 3 3 3 3 2 2 2 1 1 1 1 1 1 1 1 2 2 2 1 1 1 1 1 0 0 1 1 1 1 1 1 1
4 3 4 4 4 3 3 3 2 2 2 2 3 3 2 2 2 2 2 2 1 1 1 1 1 1 2 2 2 1 1 0 0 0 0 0 0 1 1 1 1 1 1
4 3 4 4 3 3 3 3 2 2 2 2 2 2 2 2 2 2 2 2 2 1 1 1 1 1 1 1 1 1 1 0 0 0 0 0 0 1 1 1 1 1 1
4 4 4 3 3 3 3 2 2 2 2 2 2 2 2 2 2 3 3 2 2 1 1 1 1 1 1 1 1 1 1 1 0 0 0 0 0 0 1 1 1 1 1
4 4 4 4 4 3 3 3 2 2 2 2 2 2 2 2 2 3 3 3 3 2 1 1 1 1 1 1 1 1 1 1 0 0 0 0 0 0 1 1 1 1 1
4 4 3 4 4 4 3 3 3 2 3 3 2 2 2 2 2 3 3 3 3 2 2 1 1 2 2 1 1 1 1 1 0 0 0 0 0 0 0 0 0 0 0
3 3 3 3 3 4 4 3 3 3 3 2 2 2 3 3 3 3 3 3 3 3 2 2 2 2 2 2 2 1 1 1 1 0 0 0 0 0 0 0 0 0 0
4 3 3 3 3 3 3 3 3 3 3 2 3 3 3 3 3 3 3 3 3 3 3 2 2 3 3 3 2 1 1 1 1 0 0 0 0 0 0 0 0 0 0
4 3 3 3 3 3 3 3 3 3 3 3 3 3 3 3 3 3 3 3 3 3 3 3 3 3 3 3 2 1 1 1 1 0 0 0 0 0 0 0 0 0 0
4 3 3 3 3 3 4 4 3 3 4 4 4 4 4 4 3 3 3 3 3 3 3 3 3 3 4 3 2 2 1 1 1 1 0 0 0 0 0 0 0 0 0
5 4 4 4 4 4 4 4 5 5 5 5 5 4 4 4 3 3 2 3 3 3 3 3 3 3 4 3 2 2 2 2 1 1 1 1 0 0 0 0 0 0 0
7 6 6 6 6 5 5 5 6 6 6 6 6 5 4 3 2 2 1 2 2 2 3 3 3 3 3 3 2 2 2 2 1 1 1 1 1 1 1 0 0 0 0
8 8 7 8 8 7 4 3 5 7 8 7 6 6 4 3 2 2 1 1 1 1 2 2 2 2 2 2 2 2 2 2 1 1 1 1 1 1 1 1 0 0 0
7 8 9 9 10 8 4 2 4 8 9 8 7 6 4 3 2 2 2 2 1 1 1 1 1 1 1 1 2 2 2 2 2 2 1 1 1 1 1 1 0 0 0
6 7 9 10 10 8 4 1 3 8 11 9 7 6 4 3 2 1 2 2 2 1 1 0 0 0 0 1 1 2 2 2 2 2 1 1 1 1 1 1 1 0 0
4 5 8 9 10 7 3 1 3 9 11 10 8 6 4 3 2 1 2 2 2 1 1 1 0 0 0 0 1 2 2 2 2 1 2 2 1 1 1 1 1 1 0
Wind_Speed
2 2 2 1 2 2 3 3 3 4 3 4 3 3 3 3 2 2 4 7 6 6 7 7 7 7 7 7 7 7 8 8 8 8 8 7 7 7 7 7 7 7 6
2 2 3 2 2 2 2 2 3 3 3 2 3 3 3 3 2 2 3 6 7 7 7 7 7 7 7 7 8 7 8 8 8 8 8 8 7 7 7 7 7 7 7
3 2 2 3 2 2 3 3 3 3 3 4 4 3 3 3 3 3 3 3 5 8 7 6 7 7 7 7 8 8 9 9 9 9 9 8 8 7 7 7 7 7 6
3 3 2 2 2 2 3 3 3 3 3 3 3 2 3 3 3 3 3 3 3 4 7 7 6 7 7 8 9 9 9 9 9 8 9 9 8 7 7 7 7 6 6
4 4 2 1 3 2 3 3 3 3 3 2 3 3 3 3 3 4 3 4 3 3 3 7 8 7 7 8 9 9 9 9 8 8 8 8 8 8 7 7 7 6 6
4 4 3 3 3 3 3 2 3 3 3 3 2 2 2 2 3 3 4 4 4 5 4 4 6 7 8 7 8 8 9 9 8 8 8 9 8 8 8 8 7 6 6
3 3 3 3 3 3 3 3 3 5 4 3 3 3 3 3 3 3 4 4 5 5 4 4 4 4 5 9 9 8 9 9 9 9 9 8 8 8 8 8 8 7 6
4 4 4 4 4 3 4 3 3 3 3 3 3 3 3 4 4 4 4 4 4 4 5 6 5 4 3 4 6 10 9 9 10 10 9 8 7 7 8 8 8 7 7
3 3 3 3 3 4 3 4 4 4 4 4 4 3 3 2 2 3 4 3 4 4 4 4 5 5 5 4 4 8 9 8 9 9 9 9 9 8 8 8 8 8 8
3 3 4 3 3 3 3 5 4 4 5 4 4 3 3 2 2 2 4 4 4 4 4 4 4 5 5 5 4 4 8 8 9 9 9 9 9 9 10 9 9 9 9
3 3 4 3 3 3 3 4 4 4 4 4 4 3 4 3 5 3 2 3 4 4 4 5 4 4 5 5 5 6 8 9 8 9 9 9 9 10 10 10 10 10 10
3 3 4 3 4 3 4 4 4 5 4 4 4 3 4 4 4 4 4 4 3 3 4 4 4 5 5 5 6 6 8 9 9 9 9 9 10 10 11 11 11 11 11
2 2 3 3 3 3 4 4 4 4 5 5 5 4 4 3 3 3 4 4 3 3 4 5 5 4 5 5 5 7 8 9 9 9 9 9 10 10 10 11 11 10 10
2 2 3 3 3 3 3 3 4 5 4 5 6 5 4 4 3 3 4 3 4 4 4 4 4 5 4 4 4 7 6 9 9 9 9 9 10 10 9 10 10 9 9
2 3 3 3 3 3 4 4 4 4 4 5 5 5 5 3 4 4 4 4 5 5 4 4 3 4 3 3 4 5 6 7 9 9 10 10 10 10 10 10 10 9 9
2 3 3 3 3 4 4 5 4 4 4 4 4 4 4 4 3 4 4 4 4 5 5 3 3 3 3 4 4 5 5 6 9 9 10 10 10 10 10 10 10 10 10
3 3 3 3 3 4 4 4 4 4 5 5 4 4 5 4 3 4 4 4 4 4 5 4 3 2 4 5 3 4 5 6 6 9 10 10 10 10 11 10 10 10 10
4 3 3 3 4 4 4 4 5 4 5 5 5 5 5 4 4 4 3 4 4 4 5 6 4 3 4 4 4 4 4 4 5 7 9 10 10 10 10 10 10 10 9
3 3 3 3 3 3 3 4 4 5 5 5 5 5 5 5 5 4 4 4 4 4 5 5 5 3 4 4 4 4 5 4 5 5 8 10 11 10 10 10 10 10 10
4 4 3 3 3 3 3 4 4 4 4 5 5 5 5 5 5 5 4 5 4 5 5 5 5 4 4 4 4 4 4 4 5 4 4 6 9 12 12 12 11 11 11
3 4 3 3 3 3 2 3 3 4 4 4 4 4 4 3 3 4 4 4 4 5 4 4 5 4 4 4 5 5 5 4 5 5 4 5 6 7 9 12 13 12 12
3 3 3 3 3 1 2 1 3 3 4 4 3 3 3 4 3 4 3 4 5 6 5 5 5 5 5 5 4 5 5 5 4 3 4 5 4 5 5 5 7 11 12
2 2 3 2 2 2 3 1 2 3 3 3 3 3 3 2 4 4 4 6 6 6 6 6 6 6 5 4 5 6 5 5 5 3 4 5 4 5 5 4 8 9 10
2 2 3 2 2 3 3 2 2 4 3 3 3 3 3 3 3 3 5 5 5 5 6 6 6 6 5 4 5 6 5 6 6 5 5 5 5 5 5 4 8 10 10
2 3 3 3 3 3 4 3 3 4 3 3 3 3 3 3 2 4 5 5 5 5 4 4 4 5 4 4 5 5 5 6 5 5 5 5 5 5 5 5 6 11 11
2 2 2 2 2 2 4 3 4 3 3 3 3 3 3 3 2 4 6 5 5 5 4 4 5 6 7 7 7 8 6 6 5 5 3 4 5 4 4 4 4 5 7
Wind_Direction
182 174 187 192 195 171 180 194 191 170 179 178 181 179 177 179 180 169 137 153 166 170 178 179 178 176 179 177 173 171 168 169 170 170 169 170 173 175 177 181 184 185 188
188 191 187 189 189 178 186 198 184 175 175 178 177 170 185 179 176 194 176 157 168 176 184 185 180 176 179 181 176 173 168 165 167 172 177 179 182 187 190 194 195 194 196
193 203 193 194 183 179 178 195 181 179 180 179 172 170 179 187 180 189 201 192 168 174 187 186 184 180 183 178 175 174 173 172 175 182 186 187 191 193 195 197 196 196 196
202 215 209 197 185 195 191 186 200 184 180 187 172 177 179 176 190 193 200 199 195 176 173 176 183 185 189 183 180 180 179 180 184 189 194 194 194 196 195 199 199 198 197
206 215 215 203 204 200 204 205 179 199 187 196 187 180 193 192 189 194 198 194 188 199 175 161 177 191 194 188 187 187 186 189 192 194 198 198 195 194 200 201 202 204 201
202 217 204 206 216 205 205 204 185 191 199 201 212 177 203 200 205 197 208 192 189 197 199 183 184 189 193 190 189 191 193 193 194 196 201 203 199 197 199 200 200 199 203
194 210 218 195 214 206 211 202 201 181 195 187 205 198 196 195 208 211 214 206 193 197 200 200 215 201 185 188 197 201 202 204 205 204 205 205 201 201 201 203 202 202 204
206 202 210 212 205 202 197 202 208 211 198 196 223 217 205 189 193 203 204 203 202 196 200 199 204 205 221 194 179 197 207 210 212 213 212 208 208 205 206 209 208 208 209
205 217 206 222 213 211 191 202 204 212 213 203 220 240 240 225 180 174 201 203 198 203 210 198 201 203 214 217 196 189 197 202 209 215 214 209 211 212 214 216 216 214 213
202 204 211 211 218 212 197 209 199 213 220 216 205 238 270 299 251 188 187 188 196 206 214 215 207 202 212 217 205 195 192 201 207 213 215 215 215 216 218 222 224 222 221
197 200 205 207 207 214 209 215 206 221 220 230 221 213 218 224 248 249 216 198 201 204 203 211 218 218 217 220 217 207 191 200 208 214 217 221 224 223 222 224 228 228 226
190 194 207 211 218 217 211 213 214 216 227 232 240 232 224 221 224 232 231 222 218 207 203 214 218 218 219 220 221 190 191 202 209 214 219 224 229 231 231 229 229 231 230
189 191 215 217 225 222 221 222 218 224 223 225 230 234 236 243 248 243 240 236 238 219 206 216 218 219 222 220 213 186 202 208 212 216 219 222 225 229 231 231 232 231 230
198 186 209 217 224 223 221 221 228 222 220 224 229 233 237 234 237 239 244 242 241 239 223 221 212 217 220 220 205 198 210 205 212 216 219 221 223 224 228 230 230 226 225
199 195 203 210 217 218 223 227 228 225 220 224 225 222 236 231 230 230 235 240 248 251 241 220 222 209 217 222 199 219 225 202 209 216 219 221 221 223 225 225 225 224 224
209 203 203 209 213 212 216 228 229 219 222 225 233 235 240 243 233 228 233 237 245 254 261 241 230 215 213 229 205 231 230 197 209 214 216 217 219 219 219 218 220 223 224
210 215 210 210 215 217 220 226 232 224 227 227 227 225 231 242 237 232 231 236 239 243 252 253 237 209 212 237 219 236 236 230 212 203 209 213 216 218 218 218 219 223 224
216 216 214 214 219 220 219 222 225 222 225 225 225 227 229 225 229 239 238 238 238 240 248 254 248 224 218 225 226 238 248 245 243 200 201 211 217 219 219 221 222 224 225
214 216 216 216 217 215 217 223 229 228 229 230 230 231 230 227 228 231 239 238 236 233 241 247 246 235 223 219 224 237 247 259 258 212 202 209 215 219 219 220 222 225 226
210 210 212 209 211 208 211 218 226 231 233 232 231 232 232 229 230 232 235 236 237 237 233 242 242 232 225 214 228 236 239 238 253 246 235 228 214 214 218 218 220 222 225
206 200 200 196 203 207 214 233 234 232 234 233 231 234 237 237 249 245 249 244 241 239 235 237 240 238 231 222 230 236 242 241 240 242 244 236 221 223 213 214 215 218 222
195 189 192 192 202 202 103 296 269 241 237 230 224 223 219 208 205 219 250 264 263 254 250 248 245 246 246 241 242 245 246 247 244 221 250 254 241 240 233 227 199 200 211
192 194 194 188 194 131 128 176 266 250 232 229 227 225 234 215 220 228 220 229 245 253 258 260 257 258 256 251 252 249 248 256 264 254 253 255 247 251 245 218 187 201 211
200 196 195 196 193 141 144 181 249 237 228 222 223 222 232 237 232 238 238 239 244 242 240 245 257 264 267 269 257 257 261 255 254 239 233 253 248 249 249 231 188 201 213
210 207 196 199 198 162 151 182 239 234 219 221 224 220 222 228 200 243 245 242 246 249 235 236 264 275 290 274 266 257 251 252 258 248 226 250 257 258 251 244 205 197 207
213 222 197 195 198 188 154 182 231 239 222 221 211 210 201 223 213 234 245 245 247 254 257 234 234 239 241 233 226 239 249 252 258 257 225 244 256 257 255 244 230 207 209